Location: Taukkyan
(23.1052°N, 94.0030°E)
Time: 22:45:13
(UTC+00:00)

H-2A R/B (2) - Pass Details

Date: 06 July 2020
Orbit: 452 x 34390 km, 28.4° (Epoch: 05 August)

Event Time Altitude Azimuth Distance (km) Brightness Sun altitude
Rises 18:58:42 0° 238° (WSW) 17,192 8.5 -41.3°
Enters shadow 19:15:14 - 237° (WSW) 12,511 7.7 -39.7°
Exits shadow 19:48:08 16° 93° (E) 1,977 4.4 -35.9°
Drops below altitude 10° 19:48:44 10° 89° (E) 2,198 4.7 -35.8°
Sets 19:50:10 0° 82° (E) 2,810 5.5 -35.6°
